Location: Capon Springs and Farms
(39.1310°N, 78.4814°W)
Time: 06:53:55
(UTC-04:00)

ISS - Visible Passes

Search period start: 26 March 2019 00:00
Search period end: 05 April 2019 00:00
Orbit: 408 x 411 km, 51.6° (Epoch: 26 March)

Date Brightness Start Highest point End Pass type
(mag) Time Alt. Az. Time Alt. Az. Time Alt. Az.
26 Mar -1.0 20:38:35 10° WNW 20:40:40 16° NNW 20:42:47 10° NNE visible
28 Mar -0.9 20:35:16 10° NNW 20:36:20 11° N 20:37:23 10° N visible
30 Mar -0.6 22:07:43 10° NNW 22:08:02 11° NNW 22:08:02 11° NNW visible
31 Mar -1.1 21:17:22 10° N 21:18:43 12° NNE 21:19:19 12° NNE visible
01 Apr -1.0 20:27:10 10° N 20:27:39 10° N 20:28:07 10° NNE visible
01 Apr -1.0 22:02:22 10° NNW 22:03:20 16° NNW 22:03:20 16° NNW visible
02 Apr -1.7 21:11:54 10° NNW 21:14:13 17° NNE 21:14:37 17° NNE visible
03 Apr -1.3 20:21:28 10° NNW 20:23:11 13° NNE 20:24:54 10° NE visible
03 Apr -1.5 21:57:08 10° NW 21:58:39 24° NNW 21:58:39 24° NNW visible
04 Apr -2.7 21:06:31 10° NW 21:09:30 31° NNE 21:09:58 29° NE visible
